FW7005 Weather Reports


Display with metric or nautical units.
time (UTC)temp
F
wind
direction
speed
MPH
gust
MPH
rain 1hr
in
rain 24hr
in
rain mn
in
humidity
%
barometer
mb
20260506091114 32 342 0.0 0.0 0.00 0.00 0.00 99 1020.2
20260506090613 32 272 1.0 1.0 0.00 0.00 0.00 99 1020.4
20260506090108 32 20 1.0 1.0 0.00 0.00 0.00 99 1019.9
20260506085606 32 347 0.0 1.0 0.00 0.00 0.00 99 1020.0
20260506085102 32 332 0.0 0.0 0.00 0.00 0.00 99 1020.3
20260506084559 32 319 0.0 0.0 0.00 0.00 0.00 99 1020.3
20260506084055 33 282 0.0 0.0 0.00 0.00 0.00 99 1020.3
20260506083552 32 331 0.0 0.0 0.00 0.00 0.00 99 1020.3
20260506083050 33 345 1.0 1.0 0.00 0.00 0.00 99 1020.6
20260506082546 32 334 0.0 0.0 0.00 0.00 0.00 99 1020.4
20260506082042 33 8 0.0 0.0 0.00 0.00 0.00 99 1020.4
20260506081540 33 346 0.0 0.0 0.00 0.00 0.00 99 1020.2
20260506081037 33 340 0.0 0.0 0.00 0.00 0.00 99 1020.4
20260506080535 33 322 0.0 0.0 0.00 0.00 0.00 99 1020.3
20260506073519 33 320 0.0 0.0 0.00 0.00 0.00 99 1019.8
20260506073015 33 351 0.0 0.0 0.00 0.00 0.00 99 1020.2
20260506072513 33 0 0.0 1.0 0.00 0.00 0.00 99 1020.0
20260506072010 33 331 0.0 0.0 0.00 0.00 0.00 99 1019.9
20260506071508 33 335 0.0 0.0 0.00 0.00 0.00 99 1020.2
20260506071005 34 330 0.0 0.0 0.00 0.00 0.00 99 1019.8
20260506070502 33 320 1.0 1.0 0.00 0.00 0.00 99 1019.8
20260506062439 35 323 0.0 0.0 0.00 0.28 0.28 99 1019.6
20260506061935 35 331 0.0 0.0 0.00 0.28 0.28 99 1019.4
20260506061432 35 331 0.0 0.0 0.00 0.28 0.28 99 1019.4
20260506060930 35 330 0.0 0.0 0.00 0.28 0.28 99 1019.4
20260506060428 35 336 0.0 0.0 0.00 0.28 0.28 99 1019.1
20260506051400 38 336 0.0 0.0 0.00 0.28 0.28 99 1018.5
20260506050857 38 332 0.0 0.0 0.00 0.28 0.28 99 1018.6
20260506050354 39 336 0.0 0.0 0.00 0.28 0.28 99 1018.8
20260506044845 39 311 0.0 1.0 0.00 0.28 0.28 99 1018.6
20260506044343 39 355 0.0 0.0 0.00 0.28 0.28 99 1018.5
20260506043839 40 64 1.0 1.0 0.00 0.28 0.28 99 1018.4
20260506043337 40 334 0.0 0.0 0.00 0.28 0.28 99 1018.5
20260506042835 40 322 0.0 0.0 0.00 0.28 0.28 99 1018.5
20260506042334 40 260 0.0 0.0 0.00 0.28 0.28 99 1018.5
20260506041832 40 258 0.0 0.0 0.00 0.28 0.28 99 1018.4
20260506041329 39 357 0.0 0.0 0.00 0.28 0.28 99 1018.2
20260506040826 39 17 0.0 0.0 0.00 0.28 0.28 99 1018.2
20260506040323 40 89 0.0 0.0 0.00 0.28 0.28 99 1018.2
20260506035819 40 36 0.0 0.0 0.00 0.28 0.28 99 1018.4
20260506035317 40 327 0.0 0.0 0.00 0.28 0.28 99 1018.1
20260506034814 39 355 0.0 0.0 0.00 0.28 0.28 99 1018.0
20260506034311 40 5 0.0 0.0 0.00 0.28 0.28 99 1018.0
20260506033808 40 295 0.0 0.0 0.00 0.28 0.28 99 1017.9
20260506033305 39 349 0.0 0.0 0.00 0.28 0.28 99 1017.9
20260506032802 39 357 0.0 0.0 0.00 0.28 0.28 99 1017.9
20260506032259 39 350 0.0 0.0 0.00 0.28 0.28 99 1017.8
20260506031755 39 337 0.0 0.0 0.00 0.28 0.28 99 1017.6
20260506031253 40 327 0.0 0.0 0.00 0.28 0.28 99 1017.5
20260506030751 39 340 0.0 0.0 0.00 0.28 0.28 99 1017.5
20260506030248 39 5 0.0 0.0 0.00 0.28 0.28 99 1017.5
20260506025745 39 10 0.0 0.0 0.00 0.28 0.28 99 1017.5
20260506025241 39 7 0.0 0.0 0.00 0.28 0.28 99 1017.2
20260506024738 39 71 0.0 0.0 0.00 0.28 0.28 99 1017.3
20260506024235 39 102 0.0 1.0 0.00 0.28 0.28 99 1017.3
20260506023731 39 189 0.0 2.0 0.00 0.28 0.28 99 1016.9
20260506023229 39 36 0.0 1.0 0.00 0.28 0.28 99 1017.0
20260506022725 39 232 0.0 1.0 0.00 0.28 0.28 99 1016.8
20260506022223 40 128 0.0 1.0 0.00 0.28 0.28 99 1017.0
20260506021721 40 47 0.0 0.0 0.00 0.28 0.28 99 1016.9
20260506021218 40 137 0.0 0.0 0.00 0.28 0.28 99 1016.9
20260506020714 40 126 0.0 1.0 0.00 0.28 0.28 99 1017.0
20260506020212 39 97 0.0 0.0 0.00 0.28 0.28 99 1016.8
20260506015709 39 132 0.0 0.0 0.00 0.28 0.28 99 1016.8
20260506015207 39 93 0.0 0.0 0.00 0.28 0.28 99 1016.9
20260506014704 39 117 0.0 0.0 0.00 0.28 0.28 99 1016.9
20260506014200 39 160 0.0 1.0 0.00 0.28 0.28 99 1017.0
20260506013658 39 144 1.0 2.0 0.00 0.28 0.28 99 1016.6
20260506013155 39 172 0.0 1.0 0.00 0.28 0.28 99 1016.8
20260506012651 39 240 2.0 2.0 0.00 0.28 0.28 99 1016.7
20260506012148 39 276 0.0 3.0 0.00 0.28 0.28 99 1016.9
20260506011645 39 198 2.0 2.0 0.00 0.28 0.28 99 1016.7
20260506011141 39 259 0.0 0.0 0.00 0.28 0.28 99 1016.6
20260506010640 39 216 2.0 2.0 0.00 0.28 0.28 99 1016.8
20260506010137 39 264 2.0 2.0 0.00 0.28 0.28 99 1016.7
20260506005633 39 251 1.0 1.0 0.00 0.28 0.28 99 1016.8
20260506005130 40 215 3.0 3.0 0.00 0.28 0.28 99 1016.7
20260506004626 40 27 0.0 0.0 0.00 0.28 0.28 99 1016.3
20260506004124 39 283 0.0 1.0 0.00 0.28 0.28 99 1016.5
20260506003620 39 284 0.0 2.0 0.00 0.28 0.28 99 1016.7
20260506003116 39 268 1.0 2.0 0.00 0.28 0.28 99 1016.7
20260506002612 39 248 3.0 3.0 0.00 0.28 0.28 99 1016.8
20260506002108 40 63 1.0 2.0 0.00 0.28 0.28 99 1016.8
20260506001605 39 131 2.0 2.0 0.00 0.28 0.28 99 1016.9
20260506001102 39 176 1.0 3.0 0.00 0.28 0.28 99 1016.8
20260506000559 39 20 0.0 1.0 0.00 0.28 0.28 99 1016.6
20260506000056 40 290 1.0 2.0 0.00 0.28 0.28 99 1016.8
20260505235554 39 221 0.0 0.0 0.00 0.28 0.28 99 1016.7
20260505235051 40 157 2.0 3.0 0.00 0.28 0.28 99 1016.6
20260505234548 40 174 1.0 2.0 0.00 0.28 0.28 99 1016.5
20260505234045 39 272 0.0 2.0 0.00 0.28 0.28 99 1016.7
20260505233543 39 254 4.0 6.0 0.00 0.28 0.28 99 1016.6
20260505233040 39 237 4.0 6.0 0.00 0.28 0.28 99 1016.5
20260505232537 40 246 2.0 3.0 0.00 0.28 0.28 99 1016.5
20260505232035 40 124 2.0 3.0 0.00 0.28 0.28 99 1016.6
20260505231531 41 146 3.0 6.0 0.00 0.28 0.28 99 1016.5
20260505231030 41 244 2.0 3.0 0.00 0.28 0.28 99 1016.7
20260505230527 42 58 0.0 1.0 0.00 0.28 0.28 99 1016.7
20260505230024 42 297 1.0 3.0 0.00 0.28 0.28 99 1016.5
20260505225520 43 290 0.0 1.0 0.00 0.28 0.28 99 1016.5
20260505225017 41 203 4.0 6.0 0.00 0.28 0.28 99 1016.5
20260505224514 41 242 5.0 7.0 0.00 0.28 0.28 99 1016.5
20260505224011 41 186 3.0 3.0 0.00 0.28 0.28 99 1016.7
20260505223508 41 124 3.0 3.0 0.00 0.28 0.28 99 1016.7
20260505223004 41 227 1.0 5.0 0.00 0.28 0.28 99 1016.5
20260505222501 40 244 4.0 5.0 0.00 0.28 0.28 99 1016.8
20260505221956 41 279 1.0 2.0 0.00 0.28 0.28 99 1016.8
20260505221454 40 278 2.0 6.0 0.07 0.28 0.28 99 1016.8
20260505220951 41 173 3.0 3.0 0.07 0.28 0.28 99 1016.3
20260505220448 40 266 1.0 2.0 0.00 0.27 0.27 99 1016.6
20260505215945 41 233 6.0 7.0 0.00 0.27 0.27 99 1016.3
20260505215443 41 247 3.0 5.0 0.00 0.27 0.27 99 1016.7
20260505214941 40 358 1.0 2.0 0.00 0.27 0.27 99 1016.6
20260505214438 40 275 3.0 6.0 0.00 0.27 0.27 99 1016.7
20260505213936 40 167 3.0 3.0 0.00 0.27 0.27 99 1016.7
20260505213433 39 198 2.0 6.0 0.00 0.27 0.27 99 1016.6
20260505212929 39 240 3.0 5.0 0.05 0.27 0.27 99 1016.9
20260505212426 39 230 3.0 7.0 0.00 0.26 0.26 99 1016.5
20260505211922 40 216 1.0 5.0 0.00 0.26 0.26 99 1016.8
20260505211420 40 303 0.0 2.0 0.07 0.26 0.26 99 1016.6
20260505210916 40 319 1.0 2.0 0.07 0.26 0.26 99 1016.6
20260505210414 40 241 2.0 3.0 0.00 0.25 0.25 99 1016.3
20260505205910 40 146 0.0 3.0 0.00 0.25 0.25 99 1016.3
20260505205409 40 23 0.0 2.0 0.05 0.25 0.25 99 1016.3
20260505204905 40 249 2.0 2.0 0.05 0.25 0.25 99 1016.1
20260505204403 40 129 3.0 3.0 0.00 0.24 0.24 99 1016.2
20260505203900 39 327 0.0 3.0 0.00 0.24 0.24 99 1016.5
20260505203356 40 232 3.0 5.0 0.00 0.24 0.24 99 1016.3
20260505202853 40 199 0.0 1.0 0.07 0.24 0.24 99 1016.1
20260505202349 39 250 2.0 3.0 0.05 0.23 0.23 99 1016.0
20260505201846 39 288 0.0 3.0 0.05 0.23 0.23 99 1016.2
20260505201343 39 252 1.0 3.0 0.00 0.22 0.22 99 1016.2
20260505200841 39 76 1.0 2.0 0.07 0.22 0.22 99 1016.1
20260505200338 39 248 1.0 6.0 0.07 0.22 0.22 99 1016.1
20260505195834 39 246 2.0 3.0 0.00 0.21 0.21 99 1015.9
20260505195331 39 183 1.0 7.0 0.00 0.21 0.21 99 1016.1
20260505194828 39 319 0.0 2.0 0.05 0.21 0.21 99 1016.0
20260505194325 39 141 4.0 5.0 0.05 0.21 0.21 99 1015.9
20260505193820 40 152 3.0 6.0 0.00 0.20 0.20 99 1016.2
20260505193318 39 184 1.0 5.0 0.00 0.20 0.20 99 1016.0
20260505192816 40 234 0.0 6.0 0.00 0.20 0.20 99 1016.0
20260505192315 40 167 3.0 5.0 0.00 0.20 0.20 99 1015.9
20260505191812 40 174 2.0 3.0 0.00 0.20 0.20 99 1016.1
20260505191310 40 358 0.0 1.0 0.00 0.20 0.20 99 1016.1
20260505190806 40 156 1.0 3.0 0.00 0.20 0.20 99 1015.9
20260505190302 39 284 0.0 3.0 0.00 0.20 0.20 99 1015.9
20260505185758 40 242 4.0 6.0 0.00 0.20 0.20 99 1015.9
20260505185254 40 159 2.0 3.0 0.00 0.20 0.20 99 1015.9
20260505184750 40 243 2.0 3.0 0.00 0.20 0.20 99 1015.6
20260505184248 40 206 1.0 5.0 0.00 0.20 0.20 99 1015.7
20260505183744 41 172 4.0 5.0 0.00 0.20 0.20 99 1015.9
20260505183242 41 231 3.0 5.0 0.00 0.20 0.20 99 1015.7
20260505182738 41 219 1.0 6.0 0.00 0.20 0.20 99 1015.5
20260505182235 42 167 2.0 2.0 0.00 0.20 0.20 99 1015.5
20260505181731 41 92 0.0 5.0 0.00 0.20 0.20 99 1015.4
20260505181229 40 285 1.0 3.0 0.00 0.20 0.20 99 1015.6
20260505180725 41 166 4.0 6.0 0.00 0.20 0.20 99 1015.4
20260505180222 41 153 3.0 3.0 0.00 0.20 0.20 99 1015.6
20260505175713 41 53 0.0 3.0 0.00 0.20 0.20 99 1015.7
20260505175209 39 238 3.0 3.0 0.00 0.20 0.20 99 1015.4
20260505174706 39 186 1.0 2.0 0.00 0.20 0.20 99 1015.5
20260505174203 39 240 2.0 3.0 0.00 0.20 0.20 99 1015.3
20260505173659 40 88 2.0 2.0 0.00 0.20 0.20 99 1015.3
20260505173155 39 308 0.0 1.0 0.00 0.20 0.20 99 1015.0
20260505172652 39 296 0.0 1.0 0.07 0.20 0.20 99 1015.1
20260505172149 39 201 1.0 1.0 0.07 0.20 0.20 99 1015.3
20260505171644 39 216 1.0 2.0 0.00 0.19 0.19 99 1015.3
20260505171141 38 226 1.0 3.0 0.00 0.19 0.19 99 1015.1
20260505170638 38 234 3.0 5.0 0.05 0.19 0.19 99 1015.1
20260505170135 38 76 0.0 1.0 0.05 0.19 0.19 99 1014.9
20260505165635 38 233 3.0 3.0 0.00 0.18 0.18 99 1015.3
20260505165131 39 182 1.0 2.0 0.00 0.18 0.18 99 1015.4
20260505164626 38 214 0.0 1.0 0.00 0.18 0.18 99 1015.0
20260505164125 38 178 1.0 2.0 0.00 0.18 0.18 99 1015.0
20260505163623 38 254 3.0 3.0 0.00 0.18 0.18 99 1014.9
20260505163120 38 217 2.0 2.0 0.00 0.18 0.18 99 1015.0
20260505162617 38 243 2.0 2.0 0.00 0.18 0.18 99 1014.8
20260505162115 38 248 3.0 3.0 0.00 0.18 0.18 99 1014.8
20260505161611 39 237 0.0 1.0 0.07 0.18 0.18 99 1014.9
20260505161109 38 237 0.0 1.0 0.07 0.18 0.18 99 1014.5
20260505160607 38 223 2.0 2.0 0.00 0.17 0.17 99 1014.9
20260505160104 38 212 3.0 3.0 0.00 0.17 0.17 99 1014.7
20260505153043 37 124 0.0 0.0 0.00 0.16 0.16 99 1014.5
20260505152540 37 98 0.0 1.0 0.00 0.16 0.16 99 1014.4
20260505152036 37 26 0.0 1.0 0.00 0.16 0.16 99 1014.5
20260505151531 37 45 2.0 2.0 0.00 0.16 0.16 99 1014.5
20260505151029 37 59 0.0 0.0 0.00 0.16 0.16 99 1014.2
20260505150525 37 49 0.0 0.0 0.00 0.16 0.16 99 1014.3
20260505140450 36 42 0.0 1.0 0.00 0.15 0.15 99 1014.1
20260505124903 36 287 0.0 0.0 0.05 0.12 0.12 99 1014.1
20260505124400 36 272 0.0 0.0 0.05 0.12 0.12 99 1013.8
20260505123856 36 326 0.0 0.0 0.00 0.11 0.11 99 1013.8
20260505123353 36 329 0.0 0.0 0.07 0.11 0.11 99 1013.9
20260505122849 36 322 0.0 0.0 0.00 0.10 0.10 99 1013.7
20260505122347 36 309 0.0 0.0 0.05 0.10 0.10 99 1013.7
20260505121843 36 324 0.0 0.0 0.00 0.09 0.09 99 1013.7
20260505121340 36 347 0.0 0.0 0.07 0.09 0.09 99 1013.7
20260505120836 36 21 0.0 0.0 0.07 0.09 0.09 99 1013.6
20260505120332 36 18 0.0 0.0 0.05 0.08 0.08 99 1013.5
20260505115831 37 319 0.0 0.0 0.05 0.08 0.08 99 1013.5
20260505115328 37 224 0.0 0.0 0.00 0.07 0.07 99 1013.6
20260505114826 37 173 0.0 0.0 0.07 0.07 0.07 99 1013.6
20260505114323 37 166 0.0 0.0 0.07 0.06 0.06 99 1013.8
20260505113819 37 172 0.0 0.0 0.07 0.06 0.06 99 1013.7
20260505113315 37 26 0.0 0.0 0.00 0.05 0.05 99 1013.7
20260505112811 37 35 0.0 0.0 0.00 0.05 0.05 99 1013.6
20260505112309 37 24 0.0 0.0 0.05 0.05 0.05 99 1013.6
20260505111804 37 23 0.0 0.0 0.05 0.05 0.05 99 1013.5
20260505111300 37 353 0.0 0.0 0.00 0.04 0.04 99 1013.9
20260505110756 37 338 0.0 0.0 0.00 0.04 0.04 99 1013.6
20260505110254 37 239 2.0 3.0 0.00 0.04 0.04 99 1013.6
20260505101728 38 218 0.0 0.0 0.07 0.02 0.02 99 1013.7
20260505101224 38 271 0.0 0.0 0.00 0.01 0.01 99 1013.8
20260505100721 38 266 0.0 0.0 0.05 0.01 0.01 99 1013.8
20260505100218 38 266 0.0 2.0 0.05 0.01 0.01 99 1013.8
20260505095713 38 255 1.0 1.0 0.00 0.00 0.00 99 1013.9
20260505095211 38 147 0.0 1.0 0.00 0.00 0.00 99 1013.8
20260505094706 38 235 2.0 3.0 0.00 0.00 0.00 99 1013.8
20260505094203 38 242 0.0 2.0 0.00 0.00 0.00 99 1013.9
20260505093659 38 228 3.0 3.0 0.00 0.00 0.00 99 1013.8
20260505093157 38 250 1.0 2.0 0.00 0.00 0.00 99 1014.1
20260505092653 38 211 0.0 1.0 0.00 0.00 0.00 99 1013.9
20260505092152 38 119 0.0 0.0 0.00 0.00 0.00 99 1013.8
20260505091649 38 146 1.0 2.0 0.00 0.00 0.00 99 1013.8